SITRO-AIS 30

Last updated on Wed May 14 2025 00:03:41 GMT+0000 (Coordinated Universal Time)

1 59053U 24039C 25133.57052665 .04705796 25113-5 10624-2 0 9990 2 59053 97.3907 110.3288 0008646 201.3658 158.7276 16.30119055 67742

Satellite not in orbit

SITRO-AIS 30